TimeEDT,TemperatureF,Dew PointF,Humidity,Sea Level PressureIn,VisibilityMPH,Wind Direction,Wind SpeedMPH,Gust SpeedMPH,PrecipitationIn,Events,Conditions,WindDirDegrees,DateUTC
12:15 AM,35.6,30.4,81,30.24,10.0,Calm,Calm,-,N/A,,Clear,0,2013-03-30 04:15:00
12:35 AM,34.9,30.4,84,30.23,10.0,Calm,Calm,-,N/A,,Clear,0,2013-03-30 04:35:00
12:55 AM,35.6,31.3,84,30.23,10.0,Calm,Calm,-,N/A,,Clear,0,2013-03-30 04:55:00
1:15 AM,34.0,30.4,87,30.23,7.0,Calm,Calm,-,N/A,,Clear,0,2013-03-30 05:15:00
1:35 AM,33.4,30.0,87,30.23,7.0,Calm,Calm,-,N/A,,Clear,0,2013-03-30 05:35:00
1:55 AM,33.1,29.3,86,30.23,7.0,NNE,5.8,-,N/A,,Clear,20,2013-03-30 05:55:00
2:15 AM,33.1,29.3,86,30.23,7.0,NNE,3.5,-,N/A,,Clear,30,2013-03-30 06:15:00
2:35 AM,32.7,29.1,87,30.23,7.0,Calm,Calm,-,N/A,,Clear,0,2013-03-30 06:35:00
2:55 AM,32.9,29.3,87,30.23,7.0,Calm,Calm,-,N/A,,Clear,0,2013-03-30 06:55:00
3:15 AM,32.5,28.6,85,30.23,7.0,Calm,Calm,-,N/A,,Clear,0,2013-03-30 07:15:00
3:35 AM,32.4,28.9,87,30.23,7.0,Calm,Calm,-,N/A,,Clear,0,2013-03-30 07:35:00
3:55 AM,31.5,27.5,85,30.22,7.0,North,3.5,-,N/A,,Clear,10,2013-03-30 07:55:00
4:15 AM,31.8,28.2,87,30.22,7.0,Calm,Calm,-,N/A,,Clear,0,2013-03-30 08:15:00
4:35 AM,31.5,27.5,85,30.21,7.0,Calm,Calm,-,N/A,,Clear,0,2013-03-30 08:35:00
4:55 AM,31.8,28.2,87,30.21,7.0,Calm,Calm,-,N/A,,Clear,0,2013-03-30 08:55:00
5:15 AM,31.1,27.9,88,30.21,5.0,Calm,Calm,-,N/A,,Clear,0,2013-03-30 09:15:00
5:35 AM,30.9,27.5,87,30.20,7.0,Calm,Calm,-,N/A,,Clear,0,2013-03-30 09:35:00
5:55 AM,30.7,27.3,87,30.21,7.0,Calm,Calm,-,N/A,,Clear,0,2013-03-30 09:55:00
6:15 AM,30.9,27.7,88,30.22,5.0,Calm,Calm,-,N/A,,Clear,0,2013-03-30 10:15:00
6:35 AM,30.9,27.5,87,30.22,7.0,Calm,Calm,-,N/A,,Clear,0,2013-03-30 10:35:00
6:55 AM,30.9,27.5,87,30.23,5.0,Calm,Calm,-,N/A,,Clear,0,2013-03-30 10:55:00
7:15 AM,30.7,27.5,88,30.23,7.0,Calm,Calm,-,N/A,,Clear,0,2013-03-30 11:15:00
7:35 AM,30.2,27.1,88,30.22,4.0,Calm,Calm,-,N/A,,Clear,0,2013-03-30 11:35:00
7:55 AM,30.6,27.5,88,30.22,4.0,Calm,Calm,-,N/A,,Clear,0,2013-03-30 11:55:00
8:15 AM,31.1,28.0,88,30.22,5.0,Calm,Calm,-,N/A,,Clear,0,2013-03-30 12:15:00
8:35 AM,32.0,29.1,89,30.21,4.0,Calm,Calm,-,N/A,,Clear,0,2013-03-30 12:35:00
8:55 AM,32.9,30.4,90,30.21,4.0,Calm,Calm,-,N/A,,Clear,0,2013-03-30 12:55:00
9:15 AM,35.4,32.2,88,30.21,5.0,Calm,Calm,-,N/A,,Clear,0,2013-03-30 13:15:00
9:35 AM,38.8,33.4,81,30.22,5.0,Calm,Calm,-,N/A,,Haze,0,2013-03-30 13:35:00
9:55 AM,43.2,33.6,69,30.21,10.0,South,4.6,-,N/A,,Clear,180,2013-03-30 13:55:00
10:15 AM,45.7,32.9,61,30.19,10.0,South,5.8,-,N/A,,Clear,180,2013-03-30 14:15:00
10:35 AM,48.0,32.7,55,30.19,10.0,South,6.9,-,N/A,,Clear,190,2013-03-30 14:35:00
10:55 AM,49.3,31.6,51,30.18,10.0,South,9.2,-,N/A,,Clear,180,2013-03-30 14:55:00
11:15 AM,50.2,31.8,49,30.18,10.0,South,9.2,-,N/A,,Clear,190,2013-03-30 15:15:00
11:35 AM,51.8,33.4,50,30.17,10.0,SSE,8.1,-,N/A,,Clear,160,2013-03-30 15:35:00
11:55 AM,52.0,31.6,46,30.16,10.0,SSE,10.4,-,N/A,,Clear,150,2013-03-30 15:55:00
12:15 PM,52.2,30.9,44,30.16,10.0,SSE,9.2,-,N/A,,Clear,150,2013-03-30 16:15:00
12:35 PM,53.1,32.2,45,30.15,10.0,South,8.1,-,N/A,,Clear,190,2013-03-30 16:35:00
12:55 PM,53.4,31.5,43,30.14,10.0,SSE,8.1,-,N/A,,Clear,150,2013-03-30 16:55:00
1:15 PM,54.5,32.0,42,30.13,10.0,SSW,9.2,-,N/A,,Clear,200,2013-03-30 17:15:00
1:35 PM,54.1,30.7,41,30.12,10.0,SSW,11.5,-,N/A,,Clear,200,2013-03-30 17:35:00
1:55 PM,54.5,30.0,39,30.11,10.0,SSE,8.1,-,N/A,,Clear,150,2013-03-30 17:55:00
2:15 PM,55.2,30.7,39,30.11,10.0,SSW,9.2,18.4,N/A,,Clear,200,2013-03-30 18:15:00
2:35 PM,55.0,31.5,41,30.09,10.0,SSE,9.2,-,N/A,,Clear,150,2013-03-30 18:35:00
2:55 PM,55.4,30.7,39,30.08,10.0,South,8.1,-,N/A,,Clear,190,2013-03-30 18:55:00
3:15 PM,55.6,31.3,40,30.07,10.0,SSE,5.8,-,N/A,,Clear,160,2013-03-30 19:15:00
3:35 PM,55.2,30.2,38,30.06,10.0,South,5.8,-,N/A,,Clear,180,2013-03-30 19:35:00
3:55 PM,55.6,31.1,39,30.06,10.0,South,12.7,-,N/A,,Clear,190,2013-03-30 19:55:00
4:15 PM,55.9,30.6,38,30.05,10.0,SW,10.4,-,N/A,,Clear,230,2013-03-30 20:15:00
4:35 PM,56.1,30.9,38,30.04,10.0,SW,5.8,-,N/A,,Clear,220,2013-03-30 20:35:00
4:55 PM,56.1,30.7,38,30.03,10.0,South,6.9,-,N/A,,Clear,190,2013-03-30 20:55:00
5:15 PM,56.3,31.1,38,30.02,10.0,SSW,9.2,-,N/A,,Clear,200,2013-03-30 21:15:00
5:35 PM,56.3,31.3,39,30.02,10.0,SW,8.1,-,N/A,,Clear,230,2013-03-30 21:35:00
5:55 PM,56.1,31.3,39,30.00,10.0,South,4.6,-,N/A,,Clear,190,2013-03-30 21:55:00
6:15 PM,55.9,31.5,39,30.00,10.0,WSW,5.8,-,N/A,,Clear,240,2013-03-30 22:15:00
6:35 PM,55.4,31.5,40,29.99,10.0,SSW,4.6,-,N/A,,Clear,210,2013-03-30 22:35:00
6:55 PM,55.0,34.9,47,29.99,10.0,Calm,Calm,-,N/A,,Clear,0,2013-03-30 22:55:00
7:15 PM,54.7,33.3,44,29.99,10.0,Calm,Calm,-,N/A,,Clear,0,2013-03-30 23:15:00
7:35 PM,54.3,32.2,43,29.98,10.0,Calm,Calm,-,N/A,,Scattered Clouds,0,2013-03-30 23:35:00
7:55 PM,53.1,34.3,49,29.97,10.0,Calm,Calm,-,N/A,,Scattered Clouds,0,2013-03-30 23:55:00
8:15 PM,51.4,36.3,56,29.96,10.0,Calm,Calm,-,N/A,,Clear,0,2013-03-31 00:15:00
8:35 PM,49.3,37.8,65,29.96,10.0,West,3.5,-,N/A,,Clear,260,2013-03-31 00:35:00
8:55 PM,52.9,31.5,44,29.95,10.0,Calm,Calm,-,N/A,,Clear,0,2013-03-31 00:55:00
9:15 PM,51.6,32.9,49,29.95,10.0,SSE,5.8,-,N/A,,Clear,160,2013-03-31 01:15:00
9:35 PM,48.6,34.3,58,29.95,10.0,SW,3.5,-,N/A,,Scattered Clouds,230,2013-03-31 01:35:00
9:55 PM,48.2,33.8,58,29.95,10.0,Calm,Calm,-,N/A,,Scattered Clouds,0,2013-03-31 01:55:00
10:15 PM,45.9,34.5,65,29.95,10.0,SW,3.5,-,N/A,,Scattered Clouds,220,2013-03-31 02:15:00
10:35 PM,46.2,34.5,64,29.95,10.0,Calm,Calm,-,N/A,,Scattered Clouds,0,2013-03-31 02:35:00
10:55 PM,46.2,33.6,61,29.94,10.0,Calm,Calm,-,N/A,,Clear,0,2013-03-31 02:55:00
11:15 PM,45.1,35.2,68,29.94,10.0,Calm,Calm,-,N/A,,Clear,0,2013-03-31 03:15:00
11:35 PM,44.6,36.1,72,29.94,10.0,Calm,Calm,-,N/A,,Scattered Clouds,0,2013-03-31 03:35:00
11:55 PM,44.4,35.1,70,29.94,10.0,Calm,Calm,-,N/A,,Scattered Clouds,0,2013-03-31 03:55:00